map of SRZ home
SRZ - Airport
Location
City:  Santa Cruz, Andrés Ibáñez, Santa Cruz, Bolivia
Name:El Trompillo
ICAO:SLET
IATA:SRZ

Details
Type:Airport (Aerodrome, Airfield)
Use:Public/Civil, Military
Latitude:17°48'42"S (-17.811580)
Longitude:63°10'17"W (-63.171480)
Datum:WGS 1984
Elevation:1371 ft (418 m)
Variation:12.01°W (WMM2015 magnetic declination)
-0.19° annual change
Runways:1
Longest:9144 × 124 ft (2787 × 38 m), paved

Time
Time Zone:UTC-4
Local Time:

Weather
METAR:SLET 122300Z 31008KT 9999 FEW017 SCT200 28/23 Q1009
TAF:SLET 121600Z 1218/1318 33015KT 9999 SCT015 BKN020 FEW030CB TX31/ 1219Z TN24/1310Z PROB40
TEMPO 1219/1223 6000 SHRA
BECMG 1223/1301 34010KT SCT015
TEMPO 1309/1312 BKN008
BECMG 1215/1218 33018KT SCT020 FEW027TCU

Related Locations
Nearby:
Farthest:RPUQ: 12215 mi / 19659 km
Vigan, Luzon Island, PH

Find:

   beyond  
but within

Other Information
Maps:
NOTAMs:
Links:
Sources:

  
  • flag of Bolivia
  • flag of Santa Cruz
  

Sectional Chart

Flight Planning
at skyvector.com

Satellite Image

Google Maps Satellite view

 

Copyright © 2004-2018 Karl L. Swartz. All rights reserved.
The Great Circle Mapper name and logo are trademarks of the Great Circle Mapper.
All other trademarks mentioned herein belong to their respective owners.
Please see credits for attibutions and further copyright information.

  Follow gcmap on Facebook Follow gcmap on Twitter Follow gcmap on Google+ GCmap on LinkedIn

hCard Microformat

Geo Microformat